• In Russia
  • List of Countries
  • For 7 days
  • Water Temperature
  • Weather Map
  • Weather Widgets
  • user-avatar
    Login

    Hourly Weather Ibigs

    Today, 22 September, Sunday

    Time Temperature Precipitation Wind Pressure Humidity
    00:00 +20°C° 0.2 mm 1 mps 649 mmHg 86%
    01:00 +20°C° 0 mm 1 mps 649 mmHg 88%
    02:00 +19°C° 0.3 mm 1 mps 649 mmHg 88%
    03:00 +19°C° 0.3 mm 1 mps 649 mmHg 89%
    04:00 +19°C° 0.3 mm 1 mps 648 mmHg 89%
    05:00 +18°C° 0.1 mm 0 mps 649 mmHg 88%
    06:00 +18°C° 0.1 mm 0 mps 649 mmHg 87%
    07:00 +19°C° 0.1 mm 0 mps 650 mmHg 86%
    08:00 +22°C° 0.3 mm 1 mps 650 mmHg 82%
    09:00 +23°C° 0.3 mm 1 mps 650 mmHg 78%
    10:00 +25°C° 0.3 mm 2 mps 651 mmHg 75%
    11:00 +26°C° 0.5 mm 2 mps 650 mmHg 71%
    12:00 +27°C° 0.5 mm 2 mps 650 mmHg 67%
    13:00 +28°C° 0.5 mm 2 mps 649 mmHg 63%
    14:00 +27°C° 0.4 mm 2 mps 649 mmHg 63%
    15:00 +27°C° 0.4 mm 2 mps 648 mmHg 63%
    16:00 +27°C° 0.4 mm 2 mps 648 mmHg 63%
    17:00 +25°C° 0.6 mm 1 mps 648 mmHg 69%
    18:00 +24°C° 0.6 mm 1 mps 648 mmHg 75%
    19:00 +22°C° 0.6 mm 1 mps 648 mmHg 81%
    20:00 +20°C° 0.4 mm 2 mps 649 mmHg 81%
    21:00 +20°C° 0.4 mm 2 mps 649 mmHg 82%
    22:00 +19°C° 0.4 mm 2 mps 649 mmHg 83%
    23:00 +19°C° 0.5 mm 2 mps 649 mmHg 84%

    Tomorrow, 23 September, Monday

    Time Temperature Precipitation Wind Pressure Humidity
    00:00 +20°C° 0.5 mm 1 mps 649 mmHg 85%
    01:00 +19°C° 0.5 mm 1 mps 649 mmHg 86%
    02:00 +19°C° 0.8 mm 1 mps 649 mmHg 87%
    03:00 +19°C° 0.8 mm 1 mps 649 mmHg 88%
    04:00 +19°C° 0.8 mm 1 mps 649 mmHg 89%
    05:00 +20°C° 0.7 mm 1 mps 649 mmHg 90%
    06:00 +18°C° 0.7 mm 0 mps 650 mmHg 91%
    07:00 +18°C° 0.7 mm 0 mps 650 mmHg 91%
    08:00 +19°C° 0.2 mm 0 mps 650 mmHg 87%
    09:00 +22°C° 0.2 mm 1 mps 651 mmHg 82%
    10:00 +23°C° 0.2 mm 1 mps 651 mmHg 77%
    11:00 +25°C° 0.3 mm 1 mps 651 mmHg 70%
    12:00 +26°C° 0.3 mm 2 mps 650 mmHg 64%
    13:00 +28°C° 0.3 mm 2 mps 650 mmHg 57%
    14:00 +28°C° 0.2 mm 2 mps 649 mmHg 57%
    15:00 +28°C° 0.2 mm 2 mps 649 mmHg 58%
    16:00 +27°C° 0.2 mm 2 mps 648 mmHg 59%
    17:00 +25°C° 0.3 mm 2 mps 648 mmHg 65%
    18:00 +24°C° 0.3 mm 2 mps 648 mmHg 72%
    19:00 +21°C° 0.3 mm 2 mps 648 mmHg 78%
    20:00 +20°C° 0.1 mm 2 mps 648 mmHg 77%
    21:00 +20°C° 0.1 mm 2 mps 649 mmHg 75%
    22:00 +19°C° 0.1 mm 2 mps 649 mmHg 74%
    23:00 +19°C° 0.3 mm 2 mps 649 mmHg 74%

    Day after tomorrow, 24 September, Tuesday

    Time Temperature Precipitation Wind Pressure Humidity
    00:00 +20°C° 0.3 mm 1 mps 649 mmHg 75%
    01:00 +20°C° 0.3 mm 1 mps 649 mmHg 75%
    02:00 +20°C° 0.1 mm 1 mps 649 mmHg 77%
    03:00 +20°C° 0.1 mm 1 mps 648 mmHg 78%
    04:00 +20°C° 0.1 mm 1 mps 648 mmHg 79%
    05:00 +20°C° 0 mm 1 mps 649 mmHg 79%
    06:00 +19°C° 0 mm 0 mps 650 mmHg 79%
    07:00 +19°C° 0 mm 0 mps 650 mmHg 79%
    08:00 +22°C° 0.1 mm 1 mps 651 mmHg 75%
    09:00 +24°C° 0.1 mm 1 mps 651 mmHg 70%
    10:00 +25°C° 0.1 mm 2 mps 652 mmHg 65%
    11:00 +26°C° 0.4 mm 2 mps 651 mmHg 65%
    12:00 +26°C° 0.4 mm 2 mps 650 mmHg 64%
    13:00 +27°C° 0.4 mm 2 mps 649 mmHg 63%
    14:00 +27°C° 0.5 mm 2 mps 649 mmHg 65%
    15:00 +27°C° 0.5 mm 2 mps 649 mmHg 66%
    16:00 +26°C° 0.5 mm 1 mps 648 mmHg 68%
    17:00 +25°C° 0.4 mm 1 mps 648 mmHg 72%
    18:00 +23°C° 0.4 mm 1 mps 648 mmHg 76%
    19:00 +22°C° 0.4 mm 1 mps 648 mmHg 80%
    20:00 +22°C° 0 mm 1 mps 649 mmHg 79%
    21:00 +21°C° 0 mm 1 mps 649 mmHg 79%
    22:00 +20°C° 0 mm 2 mps 650 mmHg 78%
    23:00 +21°C° 0.1 mm 1 mps 649 mmHg 79%

    25 September, Wednesday

    Time Temperature Precipitation Wind Pressure Humidity
    00:00 +20°C° 0.1 mm 1 mps 649 mmHg 80%
    01:00 +20°C° 0.1 mm 1 mps 649 mmHg 81%
    02:00 +20°C° 0.6 mm 1 mps 649 mmHg 83%
    03:00 +20°C° 0.6 mm 1 mps 649 mmHg 85%
    04:00 +18°C° 0.6 mm 0 mps 648 mmHg 86%
    05:00 +18°C° 1.1 mm 0 mps 649 mmHg 89%
    06:00 +18°C° 1.1 mm 0 mps 649 mmHg 91%
    07:00 +18°C° 1.1 mm 0 mps 650 mmHg 93%
    08:00 +18°C° 0.9 mm 0 mps 650 mmHg 91%
    09:00 +21°C° 0.9 mm 1 mps 650 mmHg 89%
    10:00 +21°C° 0.9 mm 1 mps 650 mmHg 87%
    11:00 +23°C° 0.4 mm 1 mps 650 mmHg 81%
    12:00 +24°C° 0.4 mm 2 mps 650 mmHg 76%
    13:00 +25°C° 0.4 mm 2 mps 650 mmHg 70%
    14:00 +25°C° 0.5 mm 2 mps 649 mmHg 73%
    15:00 +24°C° 0.5 mm 2 mps 649 mmHg 76%
    16:00 +24°C° 0.5 mm 2 mps 648 mmHg 78%
    17:00 +23°C° 0.4 mm 1 mps 648 mmHg 81%
    18:00 +22°C° 0.4 mm 1 mps 648 mmHg 84%
    19:00 +21°C° 0.4 mm 1 mps 648 mmHg 87%
    20:00 +21°C° 0.3 mm 1 mps 649 mmHg 86%
    21:00 +21°C° 0.3 mm 1 mps 649 mmHg 86%
    22:00 +21°C° 0.3 mm 1 mps 650 mmHg 85%
    23:00 +21°C° 0.2 mm 1 mps 650 mmHg 86%

    26 September, Thursday

    Time Temperature Precipitation Wind Pressure Humidity
    00:00 +18°C° 0.2 mm 0 mps 649 mmHg 87%
    01:00 +18°C° 0.2 mm 0 mps 649 mmHg 88%
    02:00 +18°C° 0.2 mm 0 mps 649 mmHg 89%
    03:00 +18°C° 0.2 mm 0 mps 648 mmHg 89%
    04:00 +17°C° 0.2 mm 0 mps 648 mmHg 90%
    05:00 +18°C° 0.2 mm 0 mps 649 mmHg 90%
    06:00 +18°C° 0.2 mm 0 mps 649 mmHg 89%
    07:00 +19°C° 0.2 mm 0 mps 650 mmHg 89%
    08:00 +21°C° 0.2 mm 1 mps 650 mmHg 86%
    09:00 +22°C° 0.2 mm 1 mps 650 mmHg 83%
    10:00 +23°C° 0.2 mm 1 mps 651 mmHg 80%
    11:00 +25°C° 0.5 mm 1 mps 650 mmHg 74%
    12:00 +26°C° 0.5 mm 2 mps 649 mmHg 68%
    13:00 +27°C° 0.5 mm 2 mps 649 mmHg 62%
    14:00 +27°C° 0.4 mm 2 mps 648 mmHg 64%
    15:00 +27°C° 0.4 mm 2 mps 648 mmHg 65%
    16:00 +26°C° 0.4 mm 1 mps 648 mmHg 66%
    17:00 +25°C° 0.1 mm 2 mps 648 mmHg 71%
    18:00 +23°C° 0.1 mm 2 mps 648 mmHg 75%
    19:00 +20°C° 0.1 mm 2 mps 648 mmHg 80%
    20:00 +20°C° 0 mm 2 mps 648 mmHg 77%
    21:00 +20°C° 0 mm 2 mps 649 mmHg 75%
    22:00 +19°C° 0 mm 2 mps 649 mmHg 73%
    23:00 +19°C° 0.1 mm 2 mps 649 mmHg 73%

    27 September, Friday

    Time Temperature Precipitation Wind Pressure Humidity
    00:00 +19°C° 0.1 mm 2 mps 648 mmHg 73%
    01:00 +20°C° 0.1 mm 1 mps 648 mmHg 73%
    02:00 +19°C° 0.2 mm 1 mps 648 mmHg 75%
    03:00 +19°C° 0.2 mm 1 mps 648 mmHg 77%
    04:00 +19°C° 0.2 mm 1 mps 648 mmHg 78%
    05:00 +20°C° 0.1 mm 1 mps 649 mmHg 78%
    06:00 +19°C° 0.1 mm 0 mps 649 mmHg 77%
    07:00 +19°C° 0.1 mm 0 mps 650 mmHg 76%
    08:00 +23°C° 0 mm 1 mps 650 mmHg 73%
    09:00 +24°C° 0 mm 1 mps 651 mmHg 69%
    10:00 +26°C° 0 mm 2 mps 651 mmHg 66%
    11:00 +26°C° 0.2 mm 2 mps 650 mmHg 64%
    12:00 +27°C° 0.2 mm 2 mps 649 mmHg 63%
    13:00 +28°C° 0.2 mm 2 mps 649 mmHg 62%
    14:00 +27°C° 0.4 mm 2 mps 648 mmHg 64%
    15:00 +27°C° 0.4 mm 2 mps 648 mmHg 66%
    16:00 +27°C° 0.4 mm 1 mps 648 mmHg 69%
    17:00 +25°C° 0.5 mm 1 mps 648 mmHg 73%
    18:00 +23°C° 0.5 mm 1 mps 648 mmHg 77%
    19:00 +21°C° 0.5 mm 2 mps 648 mmHg 81%
    20:00 +21°C° 0.4 mm 1 mps 648 mmHg 81%
    21:00 +21°C° 0.4 mm 1 mps 649 mmHg 81%
    22:00 +21°C° 0.4 mm 1 mps 649 mmHg 82%
    23:00 +21°C° 0.8 mm 1 mps 649 mmHg 83%
    Show more